星链-1699 (STARLINK-1699 )

导读 | 豆包AI

STARLINK-1699是美国太空探索技术公司星链互联网卫星星座的一员,于2020年10月6日发射入轨,隶属于SpaceX打造的低轨卫星互联网星座项目。星链旨在为全球提供高速低延迟互联网服务,该卫星作为星座组网的一部分,承担着太空信号转发、覆盖补盲的任务,助力星链全球网络服务的搭建与覆盖完善。

Basic Information
目录编号:
46548
目录名称:
STARLINK-1699
国际标识:
2020-070S
轨道中心:
EARTH
卫星名称:
星链-1699
卫星全名:
星链-1699 (STARLINK-1699 )
卫星状态:
已陨落 最后检测时间 2024-10-19
发射日期:
2020-10-06 UTC
国别 :
美国 (US)
星等 :
--
Orbit Information
数据来源 国际轨道数据
星历时间: 2024-10-19T22:14:44+0800
轨道信息已过期557天
半长轴: 6554.939km
偏心率: 0.0003257
轨道倾角: 53.027°
近地点辐角 198.980°
升交点赤经 211.250°
平近点角 297.329°
近地点: 174.669km
远地点: 178.939km
周期: 88.026分钟
每日圈数: 16.35874
Detailed Information
固有亮度:
5
最大亮度:
2.5
卫星平台:
Starlink V1.0
覆盖范围:
全球
运营商:
太空探索技术公司
运营商所在国:
美国
制造商(研发单位):
太空探索技术公司
制造商所在国:
美国
使用方式:
暂无
Satellite Introduction
星链(Starlink)计划是由太空探索技术公司(SpaceX)提出的一个巨型低轨卫星互联网星座项目,计划在2019年至2024年间在太空搭建由约1.2万颗卫星组成的“星链”网络,其中1584颗将部署在地球上空550千米处的近地轨道,并从2020年开始工作。该卫星仍在工作。